World > North America > United States > Illinois

Ottawa, Illinois Regional Weather

Lat: 41.35N, Lon: 88.84W
Wx Zone: ILZ019Web Search

Our weather pages are very print friendly and they make great conversation starters.

Feedback


°F Click to change Ottawa hourly weather to Imperial units.Click to change Ottawa hourly weather to Metric units. °C
Ottawa Weather Map
UTC Time: 6/14/2021, 01:41
Your Time:

Ottawa, IL Regional Weather

Expires:202106140200;;226503
ASUS43 KLOT 140109
RWRIL 

ILLINOIS REGIONAL WEATHER ROUNDUP
NATIONAL WEATHER SERVICE CHICAGO/ROMEOVILLE IL
800 PM CDT SUN JUN 13 2021

NOTE: "FAIR" INDICATES FEW OR NO CLOUDS BELOW 12,000 FEET WITH NO
SIGNIFICANT WEATHER AND/OR OBSTRUCTIONS TO VISIBILITY.

* THESE STATIONS ARE NOT UNDER NWS QUALITY CONTROL. THEY ALSO MAY NOT
  REPORT WEATHER SUCH AS PRECIPITATION OR FOG.


ILZ005-006-012>014-019>023-140200-
NORTHEAST ILLINOIS
  
CITY           SKY/WX    TMP DP  RH WIND       PRES   REMARKS
CHICAGO-OHARE  CLEAR     80  50  34 SE7       29.91F HX  80           
CHICAGO-MIDWAY CLEAR     80  45  28 E9        29.92F                  
AURORA         CLEAR     79  56  45 W5        29.92S HX  80           
JOLIET*        CLEAR     85  56  36 CALM      29.92S HX  83           
WAUKEGAN       CLEAR     76  50  40 S7        29.91F                  
DUPAGE AIRPORT CLEAR     81  54  39 SE7       29.91F HX  81           
KANKAKEE*      CLEAR     81  60  48 CALM      29.94R HX  82           
WHEELING       CLEAR     80  48  32 E6        29.93F                  
MORRIS*        CLEAR     81  61  50 NW3       29.92S HX  82           
ROMEOVILLE*    CLEAR     78  60  52 SE7       29.92S                  
LANSING*       CLEAR     78  49  36 NE5       29.94S                  
$$


SKY/WX - Weather  TMP - Temperature  DP - Dew Point  RH - Relative Humidity
WIND - Wind Direction/Speed PRES - Barometric Pressure VSB - Visibility
WCI - Wind Chill Index E13G22 Wind - East Wind 13 mph/Gusts of 22 mph